This is the latest recevied weather packets stored in our database for station/object KM4RT-13. If no packets are shown the sender has not sent any weather packets the latest 10 day(s).
| Time | Temp. | Humidity | Pressure | Rain* | Wind** | Luminosity | Snow |
|---|---|---|---|---|---|---|---|
| 1777400740 | 27.22° C | 83% | 1011.6 hPa | 0 mm | - | 274 W/m² | - |
| 1777400437 | 26.67° C | 84% | 1011.5 hPa | 0 mm | - | 331 W/m² | - |
| 1777400133 | 26.67° C | 83% | 1012 hPa | 0 mm | - | 308 W/m² | - |
| 1777399830 | 26.67° C | 85% | 1012.2 hPa | 0 mm | - | 266 W/m² | - |
| 1777399527 | 26.11° C | 85% | 1012.2 hPa | 0 mm | - | 480 W/m² | - |
| 1777399224 | 26.11° C | 85% | 1011.9 hPa | 0 mm | - | 393 W/m² | - |
| 1777398921 | 26.11° C | 86% | 1012.5 hPa | 0 mm | - | 231 W/m² | - |
| 1777398618 | 26.11° C | 86% | 1012.4 hPa | 0 mm | - | 288 W/m² | - |
| 1777398314 | 26.11° C | 85% | 1012.6 hPa | 0 mm | - | 267 W/m² | - |
| 1777398012 | 25.56° C | 86% | 1012.4 hPa | 0 mm | - | 293 W/m² | - |
| 1777397708 | 26.11° C | 85% | 1012.1 hPa | 0 mm | - | 435 W/m² | - |
| 1777397404 | 26.11° C | 85% | 1012.3 hPa | 0 mm | - | 385 W/m² | - |
| 1777397100 | 26.11° C | 86% | 1012.2 hPa | 0 mm | - | 377 W/m² | - |
| 1777396796 | 25.56° C | 87% | 1012.5 hPa | 0 mm | - | 608 W/m² | - |
| 1777396494 | 26.11° C | 86% | 1012.6 hPa | 0 mm | - | 433 W/m² | - |
| 1777396190 | 25.56° C | 86% | 1012.5 hPa | 0 mm | - | 415 W/m² | - |
| 1777395886 | 25.56° C | 88% | 1012.5 hPa | 0 mm | - | 374 W/m² | - |
| 1777395577 | 25° C | 88% | 1012.7 hPa | 0 mm | - | 723 W/m² | - |
| 1777395273 | 25° C | 89% | 1013.1 hPa | 0 mm | - | 203 W/m² | - |
| 1777394971 | 25° C | 89% | 1012.9 hPa | 0 mm | - | 196 W/m² | - |
| 1777394667 | 25° C | 90% | 1013 hPa | 0 mm | - | 238 W/m² | - |
| 1777394363 | 24.44° C | 89% | 1012.9 hPa | 0 mm | - | 280 W/m² | - |
| 1777394060 | 24.44° C | 90% | 1012.8 hPa | 0 mm | - | 258 W/m² | - |
| 1777393755 | 24.44° C | 90% | 1012.9 hPa | 0 mm | - | 169 W/m² | - |
| 1777393455 | 24.44° C | 90% | 1013.2 hPa | 0 mm | - | 205 W/m² | - |
* Rain latest hour (hover to see other rain measurements)
** Current wind speed in m/s (hover to see current wind gust speed)